Regional Weather Roundup
Issued by NWS Raleigh/Durham, NC

Home | Current Version | Previous Version | Text Only | Print | Product List | Glossary On
Versions: 1 2 3 4 5 6 7 8 9 10 11 12 13 14 15 16 17 18 19 20 21 22 23 24 25 26 27 28 29 30 31 32 33 34 35 36 37 38 39 40 41 42 43 44 45 46 47 48 49 50
000
ASUS42 KRAH 280610
RWRRAH
NORTH CAROLINA WEATHER ROUNDUP
NATIONAL WEATHER SERVICE RALEIGH NC
200 AM EDT TUE APR 28 2015

NOTE: "FAIR" INDICATES FEW OR NO CLOUDS BELOW 12,000 FEET WITH NO
SIGNIFICANT WEATHER AND/OR OBSTRUCTIONS TO VISIBILITY.

NCZ001-053-055-056-065-067-280700-
WESTERN NORTH CAROLINA

CITY           SKY/WX    TMP DP  RH WIND       PRES   REMARKS
ASHEVILLE      CLEAR     48  33  56 N6        29.95S
JEFFERSON      CLEAR     43  27  52 CALM      29.93S
MORGANTON      CLEAR     38  36  92 CALM      29.98S
HICKORY        CLEAR     46  34  62 CALM      29.93S
RUTHERFORDTON  CLEAR     45  38  78 CALM      29.95R
MOUNT AIRY       N/A     40  36  83 CALM      29.96R
BOONE          CLEAR     41  29  62 NW6       29.94S
$$

NCZ021-022-025-041-071-084-088-280700-
CENTRAL NORTH CAROLINA

CITY           SKY/WX    TMP DP  RH WIND       PRES   REMARKS
CHARLOTTE      MOCLDY    50  31  48 CALM      29.94S
GREENSBORO     CLEAR     46  32  58 CALM      29.93R
WINSTON-SALEM  CLEAR     45  33  63 N3        29.95R
RALEIGH-DURHAM CLEAR     43  36  76 CALM      29.93S
FORT BRAGG     CLEAR     48  38  67 CALM      29.91S
FAYETTEVILLE   PTCLDY    48  38  68 CALM      29.91S
BURLINGTON     CLEAR     47  34  60 N3        29.93S
LAURINBURG     CLEAR     46  39  76 CALM      29.94R
$$

NCZ011-015-027-028-043-044-047-080-103-280700-
NORTHEASTERN NORTH CAROLINA

CITY           SKY/WX    TMP DP  RH WIND       PRES   REMARKS
ROCKY MT-WILSO CLEAR     44  40  85 CALM      29.91F
GREENVILLE     CLEAR     43  43 100 CALM      29.92F
WASHINGTON     CLEAR     47  40  76 NW5       29.89F
ELIZABETH CITY CLEAR     47  37  68 W9        29.87F
MANTEO         CLEAR     54  36  51 N7        29.85F
CAPE HATTERAS  CLEAR     52  39  61 CALM      29.85F
$$

NCZ078-087-090-091-093-098-101-280700-
SOUTHEASTERN NORTH CAROLINA

CITY           SKY/WX    TMP DP  RH WIND       PRES   REMARKS
LUMBERTON      CLEAR     45  40  82 CALM      29.92S
GOLDSBORO      CLEAR     52  39  62 N3        29.89F
KINSTON        CLEAR     47  40  76 N3        29.91S
KENANSVILLE    CLEAR     46  39  77 CALM      29.92S
NEW BERN       CLEAR     47  40  76 CALM      29.90F
CHERRY POINT   CLEAR     51  42  71 NW5       29.89F
BEAUFORT       CLEAR     52  44  74 N5        29.88F
JACKSONVILLE   CLEAR     52  39  61 N5        29.89F
WILMINGTON     PTCLDY    54  38  54 N5        29.90S
$$




USA.gov is the U.S. government's official web portal to all federal, state and local government web resources and services.